| time (UTC) | temp C | wind direction | speed KPH | gust KPH | rain 1hr cm | rain 24hr cm | rain mn cm | humidity % | barometer mb |
| 20260504215004 | 25 | 220 | 4.8 | 16.1 | 0.00 | 0.00 | 0.00 | 30 | 1000.3 |
| 20260504214555 | 24 | 215 | 8.0 | 27.4 | 0.00 | 0.00 | 0.00 | 28 | 1001.7 |
| 20260504214504 | 25 | 209 | 9.7 | 27.4 | 0.00 | 0.00 | 0.00 | 30 | 1000.4 |
| 20260504213503 | 25 | 207 | 4.8 | 14.5 | 0.00 | 0.00 | 0.00 | 30 | 1000.4 |
| 20260504213107 | 25 | 276 | 8.0 | 22.5 | 0.00 | 0.00 | 0.00 | 29 | 1001.8 |
| 20260504213004 | 25 | 209 | 9.7 | 22.5 | 0.00 | 0.00 | 0.00 | 29 | 1000.5 |
| 20260504212503 | 25 | 202 | 8.0 | 16.1 | 0.00 | 0.00 | 0.00 | 30 | 1000.5 |
| 20260504212003 | 24 | 234 | 11.3 | 24.1 | 0.00 | 0.00 | 0.00 | 31 | 1000.5 |
| 20260504211551 | 24 | 199 | 8.0 | 20.9 | 0.00 | 0.00 | 0.00 | 31 | 1001.9 |
| 20260504211504 | 24 | 217 | 8.0 | 19.3 | 0.00 | 0.00 | 0.00 | 31 | 1000.5 |
| 20260504211004 | 25 | 236 | 9.7 | 20.9 | 0.00 | 0.00 | 0.00 | 29 | 1000.7 |
| 20260504210503 | 25 | 239 | 4.8 | 14.5 | 0.00 | 0.00 | 0.00 | 29 | 1000.9 |
| 20260504210048 | 25 | 264 | 4.8 | 22.5 | 0.00 | 0.00 | 0.00 | 30 | 1002.0 |
| 20260504205503 | 25 | 262 | 6.4 | 19.3 | 0.00 | 0.00 | 0.00 | 31 | 1000.8 |
| 20260504205003 | 25 | 247 | 12.9 | 29.0 | 0.00 | 0.00 | 0.00 | 30 | 1000.9 |
| 20260504204559 | 25 | 174 | 6.4 | 19.3 | 0.00 | 0.00 | 0.00 | 31 | 1002.2 |
| 20260504204503 | 25 | 248 | 8.0 | 19.3 | 0.00 | 0.00 | 0.00 | 32 | 1000.9 |
| 20260504204004 | 25 | 235 | 6.4 | 11.3 | 0.00 | 0.00 | 0.00 | 33 | 1001.0 |
| 20260504203504 | 24 | 284 | 8.0 | 20.9 | 0.00 | 0.00 | 0.00 | 31 | 1001.0 |
| 20260504203049 | 24 | 284 | 4.8 | 24.1 | 0.00 | 0.00 | 0.00 | 31 | 1002.3 |
| 20260504203003 | 25 | 224 | 4.8 | 19.3 | 0.00 | 0.00 | 0.00 | 31 | 1001.0 |
| 20260504202503 | 24 | 271 | 9.7 | 24.1 | 0.00 | 0.00 | 0.00 | 32 | 1001.1 |
| 20260504202004 | 25 | 250 | 11.3 | 20.9 | 0.00 | 0.00 | 0.00 | 31 | 1001.3 |
| 20260504201544 | 24 | 237 | 6.4 | 30.6 | 0.00 | 0.00 | 0.00 | 31 | 1002.5 |
| 20260504201503 | 24 | 243 | 6.4 | 24.1 | 0.00 | 0.00 | 0.00 | 32 | 1001.2 |
| 20260504201004 | 24 | 221 | 11.3 | 32.2 | 0.00 | 0.00 | 0.00 | 30 | 1001.4 |
| 20260504200503 | 24 | 208 | 9.7 | 25.7 | 0.00 | 0.00 | 0.00 | 32 | 1001.4 |
| 20260504200053 | 24 | 184 | 9.7 | 27.4 | 0.00 | 0.00 | 0.00 | 32 | 1002.7 |
| 20260504195504 | 24 | 229 | 9.7 | 27.4 | 0.00 | 0.00 | 0.00 | 32 | 1001.5 |
| 20260504195003 | 23 | 244 | 9.7 | 19.3 | 0.00 | 0.00 | 0.00 | 32 | 1001.5 |
| 20260504194549 | 23 | 228 | 9.7 | 27.4 | 0.00 | 0.00 | 0.00 | 32 | 1002.9 |
| 20260504194504 | 23 | 220 | 9.7 | 27.4 | 0.00 | 0.00 | 0.00 | 32 | 1001.8 |
| 20260504194004 | 25 | 240 | 8.0 | 24.1 | 0.00 | 0.00 | 0.00 | 32 | 1001.9 |
| 20260504193059 | 24 | 239 | 6.4 | 32.2 | 0.00 | 0.00 | 0.00 | 35 | 1003.0 |
| 20260504192504 | 23 | 278 | 9.7 | 32.2 | 0.00 | 0.00 | 0.00 | 35 | 1001.9 |
| 20260504192004 | 23 | 235 | 14.5 | 29.0 | 0.00 | 0.00 | 0.00 | 34 | 1002.1 |
| 20260504191548 | 23 | 204 | 12.9 | 20.9 | 0.00 | 0.00 | 0.00 | 31 | 1003.1 |
| 20260504191504 | 24 | 199 | 12.9 | 20.9 | 0.00 | 0.00 | 0.00 | 32 | 1002.0 |
| 20260504191004 | 23 | 198 | 6.4 | 20.9 | 0.00 | 0.00 | 0.00 | 36 | 1002.1 |
| 20260504190504 | 23 | 246 | 14.5 | 24.1 | 0.00 | 0.00 | 0.00 | 34 | 1002.2 |
| 20260504190053 | 24 | 201 | 8.0 | 27.4 | 0.00 | 0.00 | 0.00 | 35 | 1003.3 |
| 20260504190004 | 24 | 227 | 9.7 | 19.3 | 0.00 | 0.00 | 0.00 | 36 | 1002.2 |
| 20260504185504 | 23 | 267 | 8.0 | 27.4 | 0.00 | 0.00 | 0.00 | 36 | 1002.2 |
| 20260504185004 | 23 | 214 | 4.8 | 14.5 | 0.00 | 0.00 | 0.00 | 37 | 1002.2 |
| 20260504184544 | 22 | 209 | 8.0 | 27.4 | 0.00 | 0.00 | 0.00 | 36 | 1003.4 |
| 20260504184503 | 23 | 217 | 9.7 | 22.5 | 0.00 | 0.00 | 0.00 | 36 | 1002.3 |
| 20260504184004 | 23 | 223 | 12.9 | 27.4 | 0.00 | 0.00 | 0.00 | 38 | 1002.5 |
| 20260504183504 | 23 | 211 | 6.4 | 24.1 | 0.00 | 0.00 | 0.00 | 37 | 1002.5 |
| 20260504183055 | 23 | 274 | 9.7 | 17.7 | 0.00 | 0.00 | 0.00 | 38 | 1003.6 |
| 20260504183003 | 23 | 202 | 11.3 | 16.1 | 0.00 | 0.00 | 0.00 | 36 | 1002.6 |
| 20260504182503 | 23 | 206 | 4.8 | 12.9 | 0.00 | 0.00 | 0.00 | 38 | 1002.7 |
| 20260504182003 | 23 | 245 | 9.7 | 19.3 | 0.00 | 0.00 | 0.00 | 37 | 1002.7 |
| 20260504181546 | 23 | 271 | 4.8 | 22.5 | 0.00 | 0.00 | 0.00 | 37 | 1003.8 |
| 20260504181003 | 22 | 215 | 12.9 | 22.5 | 0.00 | 0.00 | 0.00 | 38 | 1002.8 |
| 20260504180504 | 22 | 220 | 12.9 | 29.0 | 0.00 | 0.00 | 0.00 | 37 | 1002.8 |
| 20260504180122 | 22 | 229 | 14.5 | 27.4 | 0.00 | 0.00 | 0.00 | 38 | 1003.9 |
| 20260504180004 | 22 | 231 | 16.1 | 27.4 | 0.00 | 0.00 | 0.00 | 38 | 1002.8 |
| 20260504175503 | 23 | 218 | 8.0 | 25.7 | 0.00 | 0.00 | 0.00 | 40 | 1002.9 |
| 20260504175004 | 23 | 217 | 8.0 | 22.5 | 0.00 | 0.00 | 0.00 | 40 | 1002.9 |
| 20260504174548 | 22 | 206 | 9.7 | 24.1 | 0.00 | 0.00 | 0.00 | 41 | 1004.0 |
| 20260504174504 | 22 | 238 | 11.3 | 22.5 | 0.00 | 0.00 | 0.00 | 40 | 1003.0 |
| 20260504174003 | 22 | 246 | 9.7 | 22.5 | 0.00 | 0.00 | 0.00 | 40 | 1003.0 |
| 20260504173503 | 22 | 225 | 8.0 | 19.3 | 0.00 | 0.00 | 0.00 | 41 | 1003.0 |
| 20260504173046 | 22 | 228 | 9.7 | 19.3 | 0.00 | 0.00 | 0.00 | 42 | 1004.2 |
| 20260504173003 | 22 | 219 | 9.7 | 19.3 | 0.00 | 0.00 | 0.00 | 40 | 1003.0 |
| 20260504172503 | 23 | 201 | 4.8 | 14.5 | 0.00 | 0.00 | 0.00 | 41 | 1003.0 |
| 20260504172004 | 21 | 209 | 6.4 | 24.1 | 0.00 | 0.00 | 0.00 | 43 | 1003.1 |
| 20260504171547 | 21 | 46 | 9.7 | 25.7 | 0.00 | 0.00 | 0.00 | 41 | 1004.2 |
| 20260504171504 | 21 | 259 | 9.7 | 25.7 | 0.00 | 0.00 | 0.00 | 40 | 1003.2 |
| 20260504171003 | 22 | 182 | 9.7 | 19.3 | 0.00 | 0.00 | 0.00 | 40 | 1003.2 |
| 20260504170503 | 22 | 231 | 6.4 | 19.3 | 0.00 | 0.00 | 0.00 | 43 | 1003.2 |
| 20260504151003 | 18 | 216 | 8.0 | 19.3 | 0.00 | 0.00 | 0.00 | 46 | 1004.2 |
| 20260504141004 | 17 | 232 | 9.7 | 19.3 | 0.00 | 0.00 | 0.00 | 47 | 1004.3 |
| 20260504140503 | 16 | 201 | 11.3 | 20.9 | 0.00 | 0.00 | 0.00 | 47 | 1004.3 |
| 20260504130503 | 15 | 214 | 9.7 | 19.3 | 0.00 | 0.00 | 0.00 | 48 | 1005.0 |
| 20260504100503 | 11 | 205 | 4.8 | 12.9 | 0.00 | 0.00 | 0.00 | 53 | 1005.0 |
| 20260504082004 | 10 | 199 | 4.8 | 4.8 | 0.00 | 0.00 | 0.00 | 57 | 1005.8 |
| 20260504081551 | 10 | 199 | 3.2 | 9.7 | 0.00 | 0.00 | 0.00 | 56 | 1006.7 |
| 20260504080504 | 10 | 211 | 3.2 | 4.8 | 0.00 | 0.00 | 0.00 | 57 | 1005.9 |
| 20260504044550 | 12 | 213 | 4.8 | 12.9 | 0.00 | 0.00 | 0.00 | 51 | 1007.9 |
| 20260504043059 | 12 | 187 | 3.2 | 9.7 | 0.00 | 0.00 | 0.00 | 50 | 1007.9 |
| 20260504041549 | 12 | 223 | 4.8 | 11.3 | 0.00 | 0.00 | 0.00 | 50 | 1007.9 |
| 20260504040056 | 12 | 236 | 3.2 | 9.7 | 0.00 | 0.00 | 0.00 | 50 | 1007.9 |
| 20260504034552 | 12 | 207 | 3.2 | 8.0 | 0.00 | 0.00 | 0.00 | 49 | 1007.8 |
| 20260504033053 | 13 | 206 | 4.8 | 9.7 | 0.00 | 0.00 | 0.00 | 48 | 1007.9 |
| 20260504031549 | 12 | 210 | 1.6 | 11.3 | 0.00 | 0.00 | 0.00 | 49 | 1007.9 |
| 20260504030049 | 12 | 220 | 3.2 | 9.7 | 0.00 | 0.00 | 0.00 | 50 | 1007.9 |
| 20260504024550 | 12 | 229 | 1.6 | 6.4 | 0.00 | 0.00 | 0.00 | 50 | 1008.0 |
| 20260504023504 | 13 | 211 | 3.2 | 4.8 | 0.00 | 0.00 | 0.00 | 51 | 1007.2 |
| 20260504023048 | 12 | 178 | 3.2 | 8.0 | 0.00 | 0.00 | 0.00 | 50 | 1008.2 |
| 20260504023003 | 13 | 212 | 3.2 | 4.8 | 0.00 | 0.00 | 0.00 | 50 | 1007.3 |
| 20260504021545 | 12 | 203 | 3.2 | 9.7 | 0.00 | 0.00 | 0.00 | 50 | 1008.3 |
| 20260504020054 | 12 | 260 | 4.8 | 12.9 | 0.00 | 0.00 | 0.00 | 50 | 1008.2 |
| 20260504014550 | 12 | 223 | 3.2 | 14.5 | 0.00 | 0.00 | 0.00 | 50 | 1008.1 |
| 20260504014003 | 13 | 209 | 4.8 | 12.9 | 0.00 | 0.00 | 0.00 | 51 | 1007.3 |
| 20260504013050 | 12 | 191 | 6.4 | 17.7 | 0.00 | 0.00 | 0.00 | 51 | 1008.2 |
| 20260504011549 | 12 | 234 | 3.2 | 17.7 | 0.00 | 0.00 | 0.00 | 54 | 1008.6 |
| 20260504010052 | 12 | 215 | 6.4 | 16.1 | 0.00 | 0.00 | 0.00 | 53 | 1008.5 |
| 20260504004550 | 12 | 221 | 6.4 | 17.7 | 0.00 | 0.00 | 0.00 | 55 | 1008.5 |
| 20260504003049 | 12 | 269 | 4.8 | 14.5 | 0.00 | 0.00 | 0.00 | 57 | 1008.9 |
| 20260504001544 | 12 | 215 | 1.6 | 11.3 | 0.00 | 0.00 | 0.00 | 55 | 1008.9 |
| 20260504000052 | 12 | 305 | 1.6 | 8.0 | 0.00 | 0.00 | 0.00 | 54 | 1008.7 |
| 20260503235004 | 13 | 341 | 3.2 | 9.7 | 0.00 | 0.00 | 0.00 | 52 | 1007.8 |
| 20260503234550 | 12 | 229 | 3.2 | 16.1 | 0.00 | 0.00 | 0.00 | 51 | 1008.6 |
| 20260503234003 | 13 | 200 | 3.2 | 11.3 | 0.00 | 0.00 | 0.00 | 51 | 1007.8 |
| 20260503233048 | 13 | 306 | 6.4 | 22.5 | 0.00 | 0.00 | 0.00 | 49 | 1008.7 |
| 20260503231546 | 13 | 202 | 8.0 | 25.7 | 0.00 | 0.00 | 0.00 | 45 | 1008.3 |
| 20260503224546 | 14 | 245 | 4.8 | 29.0 | 0.00 | 0.00 | 0.00 | 42 | 1008.0 |
| 20260503224003 | 15 | 279 | 9.7 | 29.0 | 0.00 | 0.00 | 0.00 | 41 | 1007.3 |
| 20260503223052 | 14 | 223 | 6.4 | 22.5 | 0.00 | 0.00 | 0.00 | 40 | 1008.0 |
| 20260503221553 | 14 | 307 | 4.8 | 16.1 | 0.00 | 0.00 | 0.00 | 42 | 1007.8 |
| 20260503220053 | 14 | 291 | 4.8 | 14.5 | 0.00 | 0.00 | 0.00 | 42 | 1008.1 |